Hourly Data Report for November 29, 2019

SHEARWATER RCS
NOVA SCOTIA
Current Station Operator: ECCC - MSC

44°37'47.000" N
63°30'48.000" W
24.00 m
8205092
71264
AAW

Download Data

Hourly Data (November 2019)
Hourly Data Report for November 29, 2019
TIME
LST
Temp Definition
°C
Dew Point Definition
°C
Rel Hum Definition
%
Precip. Amount Definition
mm

Wind Dir Definition
10's deg

Wind Spd Definition
km/h
Visibility Definition
km
Stn Press Definition
kPa
Hmdx Definition


Wind Chill Definition


Weather Definition


00:00 3.2 1.9 91 0.0 35 30   99.62     LegendNANA
01:00 3.2 1.8 91 0.0 36 32   99.70     LegendNANA
02:00 3.2 1.8 90 0.0 35 28   99.77     LegendNANA
03:00 3.1 1.6 90 0.0 34 32   99.84     LegendNANA
04:00 2.9 1.0 88 0.0 34 34   99.88     LegendNANA
05:00 2.5 0.3 85 0.0 34 39   99.92     LegendNANA
06:00 2.1 -0.1 85 0.0 34 33   99.97     LegendNANA
07:00 1.8 -0.9 82 0.0 34 33   100.02     LegendNANA
08:00 1.4 -0.8 86 0.0 34 29   100.08     LegendNANA
09:00 1.3 -0.8 86 0.0 35 31   100.11     LegendNANA
10:00 1.6 -1.8 78 0.0 35 31   100.10     LegendNANA
11:00 0.8 -2.1 81 0.0 34 35   100.11     LegendNANA
12:00 0.4 -2.7 80 0.0 34 35   100.03     LegendNANA
13:00 0.5 -3.6 74 0.0 34 33   99.97     LegendNANA
14:00 0.3 -4.3 72 0.2 34 37   99.94     LegendNANA
15:00 -0.3 -3.5 79 0.0 34 33   99.93   -7 LegendNANA
16:00 -0.8 -4.4 76 0.0 33 39   99.93   -8 LegendNANA
17:00 -1.1 -4.5 78 0.0 33 37   99.93   -9 LegendNANA
18:00 -1.3 -5.0 76 0.0 33 35   99.94   -9 LegendNANA
19:00 -1.8 -6.1 72 0.0 33 38   99.85   -10 LegendNANA
20:00 -2.1 -7.0 69 0.0 33 40   99.85   -10 LegendNANA
21:00 -2.5 -7.1 70 0.0 33 34   99.80   -10 LegendNANA
22:00 -3.0 -7.7 70 0.0 33 37   99.72   -11 LegendNANA
23:00 -3.4 -7.9 71 0.0 32 38   99.63   -12 LegendNANA

Notes on Data Quality.

Legend

  • E = Estimated
  • M = Missing
  • NA = Not Available*
  • [empty] = Indicates an unobserved value
Date modified: